"Pseudo-MPEC" for C468MC1

Created 2026 May 8 1:35:05 UT using Find_Orb

Click here for an explanation of pseudo-MPECs

 
 Astrometry: 
     C468MC1*1C2026 05 06.29273111 28 08.288+21 16 32.84   ~567o 18.07GVNEOCP703
     C468MC1 1C2026 05 06.29498011 28 16.090+21 20 21.70   ~567o 18.69GVNEOCP703
     C468MC1 1C2026 05 06.29722911 28 23.581+21 24 00.72   ~567ox      VNEOCP703
     C468MC1 1C2026 05 06.29947911 28 31.325+21 27 51.48   ~567o 18.55GVNEOCP703
     C468MC1 1C2026 05 06.32960311 30 14.832+22 17 47.36   ~568K       VNEOCP703
     C468MC1 1C2026 05 06.32978411 30 15.599+22 18 06.91   ~568Kx19.88GVNEOCP703
     C468MC1 1C2026 05 06.32996411 30 16.009+22 18 24.05   ~568K 18.02GVNEOCP703
     C468MC1 1C2026 05 06.33014511 30 16.736+22 18 41.90   ~568K 19.41GVNEOCP703
     C468MC1 KB2026 05 06.85051 12 01 12.81 +34 48 05.3    ~5705 18.9 GXNEOCPM45
     C468MC1 KB2026 05 06.85172 12 01 16.74 +34 49 33.3    ~5705 18.8 GXNEOCPM45
     C468MC1 KB2026 05 06.85281 12 01 20.29 +34 50 52.5    ~5705 18.8 GXNEOCPM45
     C468MC1 KB2026 05 06.87363812 02 43.02 +35 16 32.6    ~56N5 19.5 GXNEOCP958
     C468MC1 KB2026 05 06.87623312 02 51.36 +35 19 39.3    ~56N5 19.1 GXNEOCP958
     C468MC1 KB2026 05 06.87878612 02 59.61 +35 22 43.3    ~56N5 18.9 GXNEOCP958
     C468MC1 KB2026 05 06.88202 12 02 55.30 +35 25 49.0    ~57MZ 18.7 GXNEOCPM45
     C468MC1 KB2026 05 06.88425 12 03 02.53 +35 28 25.7    ~57MZ 19.0 GXNEOCPM45
     C468MC1 KB2026 05 06.88655 12 03 10.02 +35 31 07.8    ~57MZ 19.0 GXNEOCPM45
     C468MC1 KB2026 05 06.90296 12 04 04.86 +35 50 16.1    ~56NK 18.8 GXNEOCPL04
     C468MC1 KB2026 05 06.91122 12 04 31.81 +35 59 51.0    ~56NK 19.1 GXNEOCPL04
     C468MC1 0C2026 05 06.92308112 05 23.544+36 13 28.88   ~56MZ 19.1 GWNEOCPJ95
     C468MC1 0C2026 05 06.92406912 05 26.789+36 14 37.54   ~56MZ 18.5 GWNEOCPJ95
     C468MC1 0C2026 05 06.92671712 05 35.381+36 17 39.84   ~56MZ 19.1 GWNEOCPJ95
     C468MC1 KC2026 05 07.08624112 14 52.30 +39 13 56.9    ~572Z 19.1 GVNEOCPH21
     C468MC1 KC2026 05 07.08730212 14 55.63 +39 15 03.1    ~572Z 19.0 GVNEOCPH21
     C468MC1 KC2026 05 07.08836412 14 58.96 +39 16 09.2    ~572Z 19.0 GVNEOCPH21
     C468MC1 KC2026 05 07.08942512 15 02.29 +39 17 15.4    ~572Z 19.0 GVNEOCPH21
     C468MC1 KC2026 05 07.09080612 15 06.61 +39 18 41.2    ~572Z 19.0 GVNEOCPH21
     C468MC1 1C2026 05 07.14631912 18 14.746+40 15 37.87   ~573o 18.80GVNEOCPI52
     C468MC1 1C2026 05 07.14665812 18 15.786+40 15 58.28   ~573o 18.84GVNEOCPI52
     C468MC1 1C2026 05 07.14700412 18 16.826+40 16 18.95   ~573o 18.99GVNEOCPI52
     C468MC1 1C2026 05 07.14734912 18 17.928+40 16 39.65   ~573o 19.22GVNEOCPI52
     C468MC1  C2026 05 07.23894012 23 04.695+41 43 39.20   ~576K 18.86GVNEOCPU74
     C468MC1 1C2026 05 07.24195612 23 07.980+41 46 56.90   ~576Z       VNEOCPG96
     C468MC1  C2026 05 07.24221412 23 14.725+41 46 37.87   ~576K 18.86GVNEOCPU74
     C468MC1 1C2026 05 07.24766412 23 25.382+41 52 09.12   ~576Z 20.50GVNEOCPG96
     C468MC1 1C2026 05 07.25337312 23 42.760+41 57 20.00   ~576Z       VNEOCPG96
     C468MC1  C2026 05 07.27122012 24 35.389+42 12 58.73   ~577K 18.8 GWNEOCPH01
     C468MC1  C2026 05 07.27520112 24 47.579+42 16 30.36   ~577K 18.8 GWNEOCPH01
     C468MC1  C2026 05 07.28475712 25 16.852+42 24 55.48   ~577K 19.5 GWNEOCPH01
     C468MC1  C2026 05 07.29367012 25 44.179+42 32 42.39   ~577K 19.2 GWNEOCPH01
     C468MC1 KB2026 05 07.61001612 42 30.576+46 43 00.52   ~57Fo       ZNEOCP900
     C468MC1 KB2026 05 07.62743912 43 20.947+46 54 56.48   ~57Fox      ZNEOCP900

Station data:
(703) Catalina Sky Survey  (N32.417029 W110.732640)  US/Arizona.  Observer E.
   J. Christensen. Measurers T. Beuden, V. F. Carvajal, D. Fay, J. B.
   Fazekas, D. C. Fuls, A. R. Gibbs, A. D. Grauer, H. Gröller, J. K. Hogan,
   R. A. Kowalski, S. M. Larson, G. J. Leonard, D. Rankin, R. L. Seaman, F.
   C. Shelly, K. W. Wierzchoś. 0.68 m Schmidt + 10K CCD.
(900) Moriyama  (N35.049753 E135.989940)  Japan.  Observer Y. Ikari. 0.26-m
   f/7.0 reflector + CCD.
(958) Observatoire de Dax  (N43.693381 W1.030530)  France.  Observer P.
   Dupouy. 0.32-m Schmidt-Cassegrain.
(G96) Mt. Lemmon Survey  (N32.442729 W110.788720)  US/Arizona.  Observer E.
   J. Christensen. Measurers T. Beuden, V. F. Carvajal, D. Fay, J. B.
   Fazekas, D. C. Fuls, A. R. Gibbs, A. D. Grauer, H. Gröller, J. K. Hogan,
   R. A. Kowalski, S. M. Larson, G. J. Leonard, D. Rankin, R. L. Seaman, F.
   C. Shelly, K. W. Wierzchoś. 1.5-m reflector + 10K CCD.
(H01) Magdalena Ridge Observatory, Socorro  (N33.984833 W107.189333)  US/New
   Mexico.  Observers W. H. Ryan, E. V. Ryan. Measurer W. H. Ryan. 2.4-m
   f/8.9 reflector + CCD.
(H21) Astronomical Research Observatory, Westfield  (N39.483054 W87.968270)
   US/Illinois.  Observer R. Holmes. Measurers S. Foglia, L. Buzzi, T.
   Linder, R. Holmes. 0.40-m f/5.32 astrograph + CCD.
(I52) Steward Observatory, Mt. Lemmon Station  (N32.442570 W110.788920)
   US/Arizona. Measurers T. Beuden, V. F. Carvajal, D. Fay, J. B. Fazekas, D.
   C. Fuls, A. R. Gibbs, A. D. Grauer, H. Gröller, J. K. Hogan, R. A.
   Kowalski, S. M. Larson, G. J. Leonard, D. Rankin, R. L. Seaman, F. C.
   Shelly, K. W. Wierzchoś. 1.0-m prime focus + CCD.
(J95) Great Shefford  (N51.474969 W1.447003)  UK/England.  Observer P.
   Birtwhistle. 0.41-m f/6.3 Schmidt-Cassegrain + CCD.
(L04) ROASTERR-1 Observatory, Cluj-Napoca  (N46.820952 E23.596400)  Romania.
   Observer L. Hudin. 0.1-m f/9 refractor + CCD.
(M45) Starhopper Observatory, Sfantu Gheorghe  (N45.865494 E25.768890)
   Romania.  Observer F. Ursache. 0.41-m f/7.5 reflector + CMO.
(U74) JPL SynTrack Robotic Telescope 2, Auberry  (N37.070341 W119.412800)
   US/California.  Observers N. Saini, C. Zhai, R. Trahan, M. Zhan, M. Shao.
   0.36-m f/2.2 Schmidt.

Orbital elements:  C468MC1
   Perihelion 2026 Apr 23.070717 +/- 0.0142 TT =  1:41:49.9 (JD 2461153.570717)
Epoch 2026 May  7.0 TT = JDT 2461167.5   Earth MOID: 0.0061   Ma: 0.0719
M  10.417293170 +/- 0.015           (J2000 ecliptic)             AutoNEOCP
n   0.747870022 +/- 0.000317        Peri.  346.740694 +/- 0.013
a   1.202039203 +/- 0.00034         Node   224.323438 +/- 0.00037
e   0.15904235 +/- 0.000232         Incl.   24.786098 +/- 0.014
P   1.318/481.358d         H 25.91  G  0.15   U  7.3
q 1.010864058 +/- 6.71e-6    Q 1.393214348 +/- 0.000673
39 of 42 observations 2026 May 6-7 (31.6 hr); mean residual 0".54
Residuals in arcseconds: 
260506 703  .85-  1.1-    260506 M45  .31+  1.6+    260507 I52  .03+  .15-    
260506 703  .96+  1.5+    260506 M45  .05-  .33+    260507 I52  .32-  .16-    
260506 703( 1.6-  5.4-)   260506 M45  .03-  .22-    260507 I52  .07+  .08-    
260506 703  .82-  .44-    260506 L04  .44+  .16+    260507 U74  .01-  1.0+    
260506 703  .54+  .76-    260506 L04  .68+  .52+    260507 G96  .28+  .32-    
260506 703( 2.5+  .94+)   260506 J95  .54-  .05-    260507 U74  .28+  .93-    
260506 703  .41-  .33+    260506 J95  .06-  .21+    260507 G96  .23+  .12-    
260506 703  1.0+  .33+    260506 J95  .03-  .52-    260507 G96  .11-  .33+    
260506 M45  .51+  .86+    260507 H21  .33+  .13+    260507 H01  .20+  .23+    
260506 M45  .44+  .91+    260507 H21  .33+  .19+    260507 H01  .21+  .19+    
260506 M45  .51+  .94+    260507 H21  .31+  .15+    260507 H01  .18+  .37+    
260506 958  .79+  .51+    260507 H21  .34+  .34+    260507 H01  .14+  .28+    
260506 958  .35+  .49+    260507 H21  .22+  .30+    260507 900  .30-  .16-    
260506 958  .49+  1.2+    260507 I52  .14+  .29-    260507 900( .69-  2.7+)   

Ephemerides (geocentric):
Date (UTC) HH   RA             Dec           delta  r     elong  mag " sig PA
---- --------  ------------   ------------  ------ ------ -----  --- --------
2026 05 08 02  13 06 02.105   +51 22 07.85  .02223 1.0160 107.4 20.2 .089  82
2026 05 08 03  13 07 58.351   +51 42 28.38  .02250 1.0160 107.2 20.2 .092  83
2026 05 08 04  13 09 53.542   +52 02 13.00  .02277 1.0161 107.0 20.2 .096  83
2026 05 08 05  13 11 47.677   +52 21 22.88  .02304 1.0161 106.8 20.3 .099  84
2026 05 08 06  13 13 40.754   +52 39 59.16  .02331 1.0161 106.7 20.3 .102  84
2026 05 08 07  13 15 32.772   +52 58 02.96  .02359 1.0162 106.5 20.3 .105  85
2026 05 08 08  13 17 23.732   +53 15 35.36  .02386 1.0162 106.3 20.4 .108  85
2026 05 08 09  13 19 13.635   +53 32 37.38  .02414 1.0162 106.2 20.4 .110  86
2026 05 08 10  13 21 02.481   +53 49 10.03  .02441 1.0162 106.0 20.4 .113  86
2026 05 08 11  13 22 50.273   +54 05 14.27  .02469 1.0163 105.9 20.5 .116  87
2026 05 08 12  13 24 37.012   +54 20 51.04  .02497 1.0163 105.7 20.5 .118  88
2026 05 08 13  13 26 22.701   +54 36 01.24  .02525 1.0163 105.6 20.5 .120  88
2026 05 08 14  13 28 07.343   +54 50 45.73  .02553 1.0164 105.4 20.5 .123  89
2026 05 08 15  13 29 50.942   +55 05 05.37  .02581 1.0164 105.3 20.6 .125  90
2026 05 08 16  13 31 33.501   +55 19 00.95  .02610 1.0164 105.1 20.6 .127  90
2026 05 08 17  13 33 15.025   +55 32 33.27  .02638 1.0164 105.0 20.6 .129  91
2026 05 08 18  13 34 55.519   +55 45 43.07  .02666 1.0165 104.9 20.7 .131  91
2026 05 08 19  13 36 34.987   +55 58 31.09  .02695 1.0165 104.7 20.7 .133  92
2026 05 08 20  13 38 13.435   +56 10 58.02  .02723 1.0165 104.6 20.7 .134  93
2026 05 08 21  13 39 50.868   +56 23 04.54  .02752 1.0166 104.5 20.7 .136  93
2026 05 08 22  13 41 27.292   +56 34 51.31  .02781 1.0166 104.3 20.8 .138  94
2026 05 08 23  13 43 02.714   +56 46 18.96  .02810 1.0166 104.2 20.8 .139  95
2026 05 09 00  13 44 37.140   +56 57 28.09  .02839 1.0167 104.1 20.8 .141  95
2026 05 09 01  13 46 10.577   +57 08 19.30  .02868 1.0167 104.0 20.8 .143  96
2026 05 09 02  13 47 43.031   +57 18 53.15  .02897 1.0167 103.8 20.9 .144  96
2026 05 09 03  13 49 14.509   +57 29 10.19  .02926 1.0167 103.7 20.9 .145  97
2026 05 09 04  13 50 45.020   +57 39 10.94  .02955 1.0168 103.6 20.9 .147  98
2026 05 09 05  13 52 14.570   +57 48 55.91  .02984 1.0168 103.5 20.9 .148  98
2026 05 09 06  13 53 43.168   +57 58 25.60  .03013 1.0168 103.4 21.0 .150  99
2026 05 09 07  13 55 10.820   +58 07 40.47  .03043 1.0169 103.3 21.0 .151  99
2026 05 09 08  13 56 37.536   +58 16 40.99  .03072 1.0169 103.2 21.0 .152 100
2026 05 09 09  13 58 03.323   +58 25 27.59  .03101 1.0169 103.1 21.0 .153 101
2026 05 09 10  13 59 28.189   +58 34 00.71  .03131 1.0170 103.0 21.1 .154 101
2026 05 09 11  14 00 52.142   +58 42 20.75  .03160 1.0170 102.9 21.1 .156 102
2026 05 09 12  14 02 15.192   +58 50 28.12  .03190 1.0170 102.8 21.1 .157 102
2026 05 09 13  14 03 37.346   +58 58 23.18  .03220 1.0171 102.7 21.1 .158 103
2026 05 09 14  14 04 58.613   +59 06 06.32  .03249 1.0171 102.6 21.1 .159 103
2026 05 09 15  14 06 19.003   +59 13 37.90  .03279 1.0171 102.5 21.2 .160 104
2026 05 09 16  14 07 38.522   +59 20 58.25  .03309 1.0171 102.4 21.2 .161 105
2026 05 09 17  14 08 57.181   +59 28 07.71  .03339 1.0172 102.3 21.2 .162 105
2026 05 09 18  14 10 14.988   +59 35 06.61  .03368 1.0172 102.2 21.2 .163 106
2026 05 09 19  14 11 31.952   +59 41 55.25  .03398 1.0172 102.1 21.3 .164 106
2026 05 09 20  14 12 48.081   +59 48 33.93  .03428 1.0173 102.0 21.3 .165 107
2026 05 09 21  14 14 03.385   +59 55 02.95  .03458 1.0173 101.9 21.3 .166 107
2026 05 09 22  14 15 17.872   +60 01 22.59  .03488 1.0173 101.9 21.3 .167 108
2026 05 09 23  14 16 31.551   +60 07 33.11  .03518 1.0174 101.8 21.3 .168 108
2026 05 10 00  14 17 44.432   +60 13 34.79  .03548 1.0174 101.7 21.4 .168 109
2026 05 10 01  14 18 56.522   +60 19 27.87  .03578 1.0174 101.6 21.4 .169 109